Regional Weather Roundup
Issued by NWS Cleveland, OH

Home | Current Version | Previous Version | Graphics & Text | Print | Product List | Glossary On
Versions: 1 2 3 4 5 6 7 8 9 10 11 12 13 14 15 16 17 18 19 20 21 22 23 24 25 26 27 28 29 30 31 32 33 34 35 36 37 38 39 40 41 42 43 44 45 46 47 48 49 50
000
ASUS41 KCLE 121600
RWRCLE
OHIO REGIONAL WEATHER ROUNDUP
NATIONAL WEATHER SERVICE WILMINGTON, OH
1200 PM EDT SAT JUL 12 2014

NOTE: "FAIR" INDICATES FEW OR NO CLOUDS BELOW 12,000 FEET WITH NO
SIGNIFICANT WEATHER AND/OR OBSTRUCTIONS TO VISIBILITY.

OHZ001>008-015>018-024>027-034-035-043-044-121700-
   NORTHWEST OHIO

CITY           SKY/WX    TMP DP  RH WIND       PRES   REMARKS
DEFIANCE       PTSUNNY   82  62  50 S7        30.12F
FINDLAY        MOSUNNY   82  63  52 S9        30.14F
TOLEDO EXPRESS MOSUNNY   82  61  48 S8        30.12F
TOLEDO METCALF SUNNY     83  60  45 SW14      30.13F
LIMA           MOSUNNY   82  62  50 S8        30.15F
$$

OHZ009>014-019>023-028>033-038-089-121700-
   NORTHEAST OHIO

CITY           SKY/WX    TMP DP  RH WIND       PRES   REMARKS
CLE-HOPKINS    MOSUNNY   81  60  48 S8        30.17F
CLE-LAKEFRONT  PTSUNNY   79  64  60 N6        30.14F
CUY CO. ARPT   NOT AVBL
LORAIN-ELYRIA  SUNNY     85  59  41 SW9       30.16F
ASHTABULA      MOSUNNY   79  60  52 SW7       30.18F
AKRON-CANTON   PTSUNNY   82  59  45 W6        30.18F
WOOSTER        NOT AVBL
MANSFIELD      SUNNY     81  62  52 SW12      30.18F
YOUNGSTOWN     PTSUNNY   81  59  47 SW8       30.19S
$$

OHZ042-051>053-060>062-070>072-077>081-121700-
  SOUTHWEST OHIO

CITY           SKY/WX    TMP DP  RH WIND       PRES   REMARKS
CINC-COVINGTON PTSUNNY   83  61  47 SW7       30.18F
CINC-LUNKEN    PTSUNNY   82  64  54 SW6       30.17F
HAMILTON       MOSUNNY   83  63  50 VRB5      30.17F
DAYTON         NOT AVBL
WRIGHT-PAT AFB NOT AVBL
DAYTON GENERAL PTSUNNY   82  64  54 S6        30.17F
WILMINGTON     PTSUNNY   80  61  52 SW10      30.18S
$$

OHZ036-037-039>041-045>050-054>059-063>069-073>076-082>088-121700-
  CENTRAL AND SOUTHEAST OHIO

CITY           SKY/WX    TMP DP  RH WIND       PRES   REMARKS
COLUMBUS       PTSUNNY   84  62  47 CALM      30.16F
OSU AIRPORT    MOSUNNY   81  62  52 SW9       30.17S
BOLTON FIELD   SUNNY     81  64  57 W9        30.18S
RICKENBACK AFB NOT AVBL
NEWARK         SUNNY     82  65  56 SW8       30.17F
MARION         MOSUNNY   79  61  53 W7        30.17S
LANCASTER      MOSUNNY   81  63  54 SW9       30.18F
ZANESVILLE     SUNNY     81  64  56 S8        30.18F
NEW PHILLY     SUNNY     81  64  56 VRB6      30.18F
$$



USA.gov is the U.S. government's official web portal to all federal, state and local government web resources and services.